TimePDT,TemperatureF,Dew PointF,Humidity,Sea Level PressureIn,VisibilityMPH,Wind Direction,Wind SpeedMPH,Gust SpeedMPH,PrecipitationIn,Events,Conditions,WindDirDegrees,DateUTC
12:56 AM,30.9,18.0,59,29.97,10.0,SSE,5.8,-,N/A,,Clear,150,2013-03-28 07:56:00
1:56 AM,28.9,17.1,61,29.97,10.0,South,5.8,-,N/A,,Clear,180,2013-03-28 08:56:00
2:56 AM,28.9,16.0,58,29.97,10.0,Calm,Calm,-,N/A,,Partly Cloudy,0,2013-03-28 09:56:00
3:56 AM,28.9,17.1,61,29.98,10.0,Calm,Calm,-,N/A,,Partly Cloudy,0,2013-03-28 10:56:00
4:56 AM,27.0,17.1,66,29.99,10.0,SSE,3.5,-,N/A,,Mostly Cloudy,150,2013-03-28 11:56:00
5:56 AM,32.0,19.9,61,29.98,10.0,Calm,Calm,-,N/A,,Overcast,0,2013-03-28 12:56:00
6:56 AM,32.0,19.0,59,30.01,10.0,WNW,4.6,-,N/A,,Overcast,290,2013-03-28 13:56:00
7:56 AM,37.9,23.0,55,30.05,10.0,Calm,Calm,-,N/A,,Overcast,0,2013-03-28 14:56:00
8:56 AM,46.0,26.1,46,30.03,10.0,NNW,3.5,-,N/A,,Overcast,330,2013-03-28 15:56:00
9:56 AM,52.0,28.0,40,30.04,10.0,NNW,3.5,-,N/A,,Overcast,330,2013-03-28 16:56:00
10:56 AM,57.0,30.9,37,30.04,10.0,WSW,6.9,-,N/A,,Partly Cloudy,250,2013-03-28 17:56:00
11:56 AM,60.1,28.9,31,30.04,10.0,Variable,4.6,-,N/A,,Clear,0,2013-03-28 18:56:00
12:56 PM,60.1,28.9,31,30.02,10.0,NW,3.5,-,N/A,,Overcast,310,2013-03-28 19:56:00
1:56 PM,61.0,28.9,30,30.01,10.0,SSW,5.8,-,N/A,,Overcast,200,2013-03-28 20:56:00
2:56 PM,61.0,28.9,30,29.99,10.0,Calm,Calm,-,0.00,,Mostly Cloudy,0,2013-03-28 21:56:00
3:56 PM,62.1,28.0,28,29.98,10.0,Variable,5.8,-,N/A,,Overcast,0,2013-03-28 22:56:00
4:56 PM,62.1,28.9,29,29.99,10.0,WNW,13.8,23.0,N/A,,Overcast,290,2013-03-28 23:56:00
5:06 PM,64.4,28.4,26,30.01,10.0,WNW,10.4,21.9,N/A,,Overcast,290,2013-03-29 00:06:00
5:56 PM,63.0,28.0,27,29.98,10.0,West,8.1,-,N/A,,Partly Cloudy,270,2013-03-29 00:56:00
6:56 PM,57.9,28.0,32,30.00,10.0,West,5.8,-,N/A,,Partly Cloudy,260,2013-03-29 01:56:00
7:56 PM,53.1,28.9,40,30.02,10.0,WNW,3.5,-,N/A,,Partly Cloudy,290,2013-03-29 02:56:00
8:56 PM,52.0,28.0,40,30.04,10.0,WSW,5.8,-,N/A,,Clear,250,2013-03-29 03:56:00
9:56 PM,54.0,26.1,34,30.05,10.0,West,13.8,20.7,N/A,,Mostly Cloudy,260,2013-03-29 04:56:00
10:56 PM,52.0,28.9,41,30.06,10.0,SW,4.6,-,N/A,,Mostly Cloudy,220,2013-03-29 05:56:00
11:56 PM,53.1,28.9,40,30.07,10.0,North,4.6,-,N/A,,Overcast,10,2013-03-29 06:56:00